Time,TemperatureF,DewpointF,PressureIn,WindDirection,WindDirectionDegrees,WindSpeedMPH,WindSpeedGustMPH,Humidity,HourlyPrecipIn,Conditions,Clouds,dailyrainin,SoftwareType,DateUTC
2013-12-18 00:12:00,12.0,-99.9,-100.00,North,-999,-999.0,-999.0,-999,0.00,,,0.24,,2013-12-18 05:12:00,
2013-12-18 00:22:00,12.0,-99.9,-100.00,North,-999,-999.0,-999.0,-999,0.00,,,0.24,,2013-12-18 05:22:00,
2013-12-18 00:33:00,12.0,-99.9,-100.00,North,-999,-999.0,-999.0,-999,0.00,,,0.24,,2013-12-18 05:33:00,
2013-12-18 00:40:00,13.0,-99.9,-100.00,North,-999,-999.0,-999.0,-999,0.00,,,0.24,,2013-12-18 05:40:00,
2013-12-18 01:12:00,13.0,-99.9,-100.00,North,-999,-999.0,-999.0,-999,0.00,,,0.24,,2013-12-18 06:12:00,
2013-12-18 01:22:00,13.0,-99.9,-100.00,North,-999,-999.0,-999.0,-999,0.00,,,0.24,,2013-12-18 06:22:00,
2013-12-18 01:33:00,13.0,-99.9,-100.00,North,-999,-999.0,-999.0,-999,0.00,,,0.24,,2013-12-18 06:33:00,
2013-12-18 01:40:00,14.0,-99.9,-100.00,North,-999,-999.0,-999.0,-999,0.00,,,0.24,,2013-12-18 06:40:00,
2013-12-18 02:12:00,14.0,-99.9,-100.00,North,-999,-999.0,-999.0,-999,0.00,,,0.24,,2013-12-18 07:12:00,
2013-12-18 02:22:00,14.0,-99.9,-100.00,North,-999,-999.0,-999.0,-999,0.00,,,0.24,,2013-12-18 07:22:00,
2013-12-18 02:32:00,14.0,-99.9,-100.00,North,-999,-999.0,-999.0,-999,0.00,,,0.24,,2013-12-18 07:32:00,
2013-12-18 02:40:00,17.0,-99.9,-100.00,North,-999,-999.0,-999.0,-999,0.00,,,0.24,,2013-12-18 07:40:00,
2013-12-18 03:12:00,17.0,-99.9,-100.00,North,-999,-999.0,-999.0,-999,0.00,,,0.24,,2013-12-18 08:12:00,
2013-12-18 03:22:00,17.0,-99.9,-100.00,North,-999,-999.0,-999.0,-999,0.00,,,0.24,,2013-12-18 08:22:00,
2013-12-18 03:33:00,17.0,-99.9,-100.00,North,-999,-999.0,-999.0,-999,0.00,,,0.24,,2013-12-18 08:33:00,
2013-12-18 03:40:00,17.0,-99.9,-100.00,North,-999,-999.0,-999.0,-999,0.00,,,0.24,,2013-12-18 08:40:00,
2013-12-18 04:11:00,17.0,-99.9,-100.00,North,-999,-999.0,-999.0,-999,0.00,,,0.24,,2013-12-18 09:11:00,
2013-12-18 04:23:00,17.0,-99.9,-100.00,North,-999,-999.0,-999.0,-999,0.00,,,0.24,,2013-12-18 09:23:00,
2013-12-18 04:33:00,17.0,-99.9,-100.00,North,-999,-999.0,-999.0,-999,0.00,,,0.24,,2013-12-18 09:33:00,
2013-12-18 04:40:00,17.0,-99.9,-100.00,North,-999,-999.0,-999.0,-999,0.00,,,0.24,,2013-12-18 09:40:00,
2013-12-18 05:13:00,17.0,-99.9,-100.00,North,-999,-999.0,-999.0,-999,0.00,,,0.24,,2013-12-18 10:13:00,
2013-12-18 05:23:00,17.0,-99.9,-100.00,North,-999,-999.0,-999.0,-999,0.00,,,0.24,,2013-12-18 10:23:00,
2013-12-18 05:33:00,17.0,-99.9,-100.00,North,-999,-999.0,-999.0,-999,0.00,,,0.24,,2013-12-18 10:33:00,
2013-12-18 05:40:00,19.0,-99.9,-100.00,North,-999,-999.0,-999.0,-999,-99.99,,,0.24,,2013-12-18 10:40:00,
2013-12-18 06:12:00,19.0,-99.9,-100.00,North,-999,-999.0,-999.0,-999,-99.99,,,0.24,,2013-12-18 11:12:00,
2013-12-18 06:23:00,19.0,-99.9,-100.00,North,-999,-999.0,-999.0,-999,-99.99,,,0.24,,2013-12-18 11:23:00,
2013-12-18 06:33:00,19.0,-99.9,-100.00,North,-999,-999.0,-999.0,-999,-99.99,,,0.24,,2013-12-18 11:33:00,
2013-12-18 06:40:00,19.0,-99.9,-100.00,North,-999,-999.0,-999.0,-999,0.00,,,0.24,,2013-12-18 11:40:00,
2013-12-18 07:11:00,19.0,-99.9,-100.00,North,-999,-999.0,-999.0,-999,0.00,,,0.24,,2013-12-18 12:11:00,
2013-12-18 07:22:00,19.0,-99.9,-100.00,North,-999,-999.0,-999.0,-999,0.00,,,0.24,,2013-12-18 12:22:00,
2013-12-18 07:32:00,19.0,-99.9,-100.00,North,-999,-999.0,-999.0,-999,0.00,,,0.24,,2013-12-18 12:32:00,
2013-12-18 07:40:00,15.0,-99.9,-100.00,North,-999,-999.0,-999.0,-999,-99.99,,,0.24,,2013-12-18 12:40:00,
2013-12-18 08:12:00,15.0,-99.9,-100.00,North,-999,-999.0,-999.0,-999,-99.99,,,0.24,,2013-12-18 13:12:00,
2013-12-18 08:22:00,15.0,-99.9,-100.00,North,-999,-999.0,-999.0,-999,-99.99,,,0.24,,2013-12-18 13:22:00,
2013-12-18 08:32:00,15.0,-99.9,-100.00,North,-999,-999.0,-999.0,-999,-99.99,,,0.24,,2013-12-18 13:32:00,
2013-12-18 08:40:00,17.0,-99.9,-100.00,North,-999,-999.0,-999.0,-999,-99.99,,,0.23,,2013-12-18 13:40:00,
2013-12-18 09:11:00,17.0,-99.9,-100.00,North,-999,-999.0,-999.0,-999,-99.99,,,0.23,,2013-12-18 14:11:00,
2013-12-18 09:22:00,17.0,-99.9,-100.00,North,-999,-999.0,-999.0,-999,-99.99,,,0.23,,2013-12-18 14:22:00,
2013-12-18 09:32:00,17.0,-99.9,-100.00,North,-999,-999.0,-999.0,-999,-99.99,,,0.23,,2013-12-18 14:32:00,
2013-12-18 09:40:00,25.0,-99.9,-100.00,North,-999,-999.0,-999.0,-999,0.00,,,0.23,,2013-12-18 14:40:00,
2013-12-18 10:40:00,26.0,-99.9,-100.00,North,-999,-999.0,-999.0,-999,-99.99,,,0.23,,2013-12-18 15:40:00,
2013-12-18 11:13:00,26.0,-99.9,-100.00,North,-999,-999.0,-999.0,-999,-99.99,,,0.23,,2013-12-18 16:13:00,
2013-12-18 11:23:00,26.0,-99.9,-100.00,North,-999,-999.0,-999.0,-999,-99.99,,,0.23,,2013-12-18 16:23:00,
2013-12-18 11:33:00,26.0,-99.9,-100.00,North,-999,-999.0,-999.0,-999,-99.99,,,0.23,,2013-12-18 16:33:00,
2013-12-18 11:40:00,28.0,-99.9,-100.00,North,-999,-999.0,-999.0,-999,-99.99,,,0.23,,2013-12-18 16:40:00,
2013-12-18 12:13:00,28.0,-99.9,-100.00,North,-999,-999.0,-999.0,-999,-99.99,,,0.23,,2013-12-18 17:13:00,
2013-12-18 12:23:00,28.0,-99.9,-100.00,North,-999,-999.0,-999.0,-999,-99.99,,,0.23,,2013-12-18 17:23:00,
2013-12-18 12:33:00,28.0,-99.9,-100.00,North,-999,-999.0,-999.0,-999,-99.99,,,0.23,,2013-12-18 17:33:00,
2013-12-18 12:40:00,30.0,-99.9,-100.00,North,-999,-999.0,-999.0,-999,0.00,,,0.23,,2013-12-18 17:40:00,
2013-12-18 13:12:00,30.0,-99.9,-100.00,North,-999,-999.0,-999.0,-999,0.00,,,0.23,,2013-12-18 18:12:00,
2013-12-18 13:22:00,30.0,-99.9,-100.00,North,-999,-999.0,-999.0,-999,0.00,,,0.23,,2013-12-18 18:22:00,
2013-12-18 13:32:00,30.0,-99.9,-100.00,North,-999,-999.0,-999.0,-999,0.00,,,0.23,,2013-12-18 18:32:00,
2013-12-18 13:40:00,30.0,-99.9,-100.00,North,-999,-999.0,-999.0,-999,-99.99,,,0.22,,2013-12-18 18:40:00,
2013-12-18 14:11:00,30.0,-99.9,-100.00,North,-999,-999.0,-999.0,-999,-99.99,,,0.22,,2013-12-18 19:11:00,
2013-12-18 14:22:00,30.0,-99.9,-100.00,North,-999,-999.0,-999.0,-999,-99.99,,,0.22,,2013-12-18 19:22:00,
2013-12-18 14:32:00,30.0,-99.9,-100.00,North,-999,-999.0,-999.0,-999,-99.99,,,0.22,,2013-12-18 19:32:00,
2013-12-18 14:40:00,29.0,-99.9,-100.00,North,-999,-999.0,-999.0,-999,-99.99,,,0.21,,2013-12-18 19:40:00,
2013-12-18 15:12:00,29.0,-99.9,-100.00,North,-999,-999.0,-999.0,-999,-99.99,,,0.21,,2013-12-18 20:12:00,
2013-12-18 15:22:00,29.0,-99.9,-100.00,North,-999,-999.0,-999.0,-999,-99.99,,,0.21,,2013-12-18 20:22:00,
2013-12-18 15:32:00,29.0,-99.9,-100.00,North,-999,-999.0,-999.0,-999,-99.99,,,0.21,,2013-12-18 20:32:00,
2013-12-18 15:40:00,28.0,-99.9,-100.00,North,-999,-999.0,-999.0,-999,-99.99,,,0.21,,2013-12-18 20:40:00,
2013-12-18 16:11:00,28.0,-99.9,-100.00,North,-999,-999.0,-999.0,-999,-99.99,,,0.21,,2013-12-18 21:11:00,
2013-12-18 16:22:00,28.0,-99.9,-100.00,North,-999,-999.0,-999.0,-999,-99.99,,,0.21,,2013-12-18 21:22:00,
2013-12-18 16:33:00,28.0,-99.9,-100.00,North,-999,-999.0,-999.0,-999,-99.99,,,0.21,,2013-12-18 21:33:00,
2013-12-18 16:40:00,24.0,-99.9,-100.00,North,-999,-999.0,-999.0,-999,-99.99,,,0.16,,2013-12-18 21:40:00,
2013-12-18 17:13:00,24.0,-99.9,-100.00,North,-999,-999.0,-999.0,-999,-99.99,,,0.16,,2013-12-18 22:13:00,
2013-12-18 17:23:00,24.0,-99.9,-100.00,North,-999,-999.0,-999.0,-999,-99.99,,,0.16,,2013-12-18 22:23:00,
2013-12-18 17:33:00,24.0,-99.9,-100.00,North,-999,-999.0,-999.0,-999,-99.99,,,0.16,,2013-12-18 22:33:00,
2013-12-18 17:40:00,23.0,-99.9,-100.00,North,-999,-999.0,-999.0,-999,-99.99,,,0.10,,2013-12-18 22:40:00,
2013-12-18 18:12:00,23.0,-99.9,-100.00,North,-999,-999.0,-999.0,-999,-99.99,,,0.10,,2013-12-18 23:12:00,
2013-12-18 18:22:00,23.0,-99.9,-100.00,North,-999,-999.0,-999.0,-999,-99.99,,,0.10,,2013-12-18 23:22:00,
2013-12-18 18:33:00,23.0,-99.9,-100.00,North,-999,-999.0,-999.0,-999,-99.99,,,0.10,,2013-12-18 23:33:00,
2013-12-18 18:40:00,21.0,-99.9,-100.00,North,-999,-999.0,-999.0,-999,0.00,,,0.04,,2013-12-18 23:40:00,
2013-12-18 19:11:00,21.0,-99.9,-100.00,North,-999,-999.0,-999.0,-999,0.00,,,0.04,,2013-12-19 00:11:00,
2013-12-18 19:22:00,21.0,-99.9,-100.00,North,-999,-999.0,-999.0,-999,0.00,,,0.04,,2013-12-19 00:22:00,
2013-12-18 19:32:00,21.0,-99.9,-100.00,North,-999,-999.0,-999.0,-999,0.00,,,0.04,,2013-12-19 00:32:00,
2013-12-18 19:40:00,21.0,-99.9,-100.00,North,-999,-999.0,-999.0,-999,0.00,,,0.01,,2013-12-19 00:40:00,
2013-12-18 20:12:00,21.0,-99.9,-100.00,North,-999,-999.0,-999.0,-999,0.00,,,0.01,,2013-12-19 01:12:00,
2013-12-18 20:22:00,21.0,-99.9,-100.00,North,-999,-999.0,-999.0,-999,0.00,,,0.01,,2013-12-19 01:22:00,
2013-12-18 20:33:00,21.0,-99.9,-100.00,North,-999,-999.0,-999.0,-999,0.00,,,0.01,,2013-12-19 01:33:00,
2013-12-18 20:40:00,20.0,-99.9,-100.00,North,-999,-999.0,-999.0,-999,0.00,,,-99.99,,2013-12-19 01:40:00,
2013-12-18 21:12:00,20.0,-99.9,-100.00,North,-999,-999.0,-999.0,-999,0.00,,,-99.99,,2013-12-19 02:12:00,
2013-12-18 21:22:00,20.0,-99.9,-100.00,North,-999,-999.0,-999.0,-999,0.00,,,-99.99,,2013-12-19 02:22:00,
2013-12-18 21:32:00,20.0,-99.9,-100.00,North,-999,-999.0,-999.0,-999,0.00,,,-99.99,,2013-12-19 02:32:00,
2013-12-18 21:40:00,21.0,-99.9,-100.00,North,-999,-999.0,-999.0,-999,0.00,,,-99.99,,2013-12-19 02:40:00,
2013-12-18 22:12:00,21.0,-99.9,-100.00,North,-999,-999.0,-999.0,-999,0.00,,,-99.99,,2013-12-19 03:12:00,
2013-12-18 22:22:00,21.0,-99.9,-100.00,North,-999,-999.0,-999.0,-999,0.00,,,-99.99,,2013-12-19 03:22:00,
2013-12-18 22:33:00,21.0,-99.9,-100.00,North,-999,-999.0,-999.0,-999,0.00,,,-99.99,,2013-12-19 03:33:00,
2013-12-18 22:40:00,25.0,-99.9,-100.00,North,-999,-999.0,-999.0,-999,0.00,,,-99.99,,2013-12-19 03:40:00,
2013-12-18 23:13:00,25.0,-99.9,-100.00,North,-999,-999.0,-999.0,-999,0.00,,,-99.99,,2013-12-19 04:13:00,
2013-12-18 23:23:00,25.0,-99.9,-100.00,North,-999,-999.0,-999.0,-999,0.00,,,-99.99,,2013-12-19 04:23:00,
2013-12-18 23:33:00,25.0,-99.9,-100.00,North,-999,-999.0,-999.0,-999,0.00,,,-99.99,,2013-12-19 04:33:00,
2013-12-18 23:40:00,26.0,-99.9,-100.00,North,-999,-999.0,-999.0,-999,0.00,,,-99.99,,2013-12-19 04:40:00,